Weather in Novomariinka

Russia / Tomsk District     57°08′15″N   86°30′18″E
temp.,
°C
wind,
m/s
gust,
m/s
humid.,
%
clouds,
%
prec.,
mm/h
press.,
hPa
HPBL,
m
19 april, mon
mon1901:000sse41199100 5.2 999615
04:00−1nnw2699100 5.6 995634
07:00−8n81593100 7.3 996751
10:00−11nw91791100 4.8 10051022
13:00−9wnw7137990 5.4 10131077
16:00−7wnw61074100 0.1 10171664
19:00−9w6107999 0.4 10201146
22:00−12w5128630 0.0 1021609
20 april, tue
tue2001:00−12w41291100 0.0 1021601
04:00−12w51192100 0.1 1021719
07:00−12w51292100 0.2 1022664
10:00−9wnw5980100 0.1 1023830
13:00−5wnw5769100 0.1 10221282
16:00−4wnw5767100 0.1 10221558
19:00−4w3677100 0.2 10231164
22:00−10sw1196100 0.1 102310
21 april, wed
wed2101:00−13ssw119756 0.1 102317
04:00−10sse2495100 0.0 102375
07:00−7sse1392100 0.0 102391
10:00−4se2374100 0.0 1024882
13:00−2se2371100 0.3 10241164
16:00−1ese2267100 0.4 10251091
19:00−1ene2478100 0.8 1027429
22:00−6ne269322 0.1 103091
22 april, thu
thu2201:00−9nne25955 0.1 103262
04:00−10nne25945 0.0 103375
07:00−8nne26915 0.0 1036115
10:00−1n368279 0.0 1037662
13:00+1n4565100 0.1 10381409
16:00+2n4563100 0.1 10391476
19:00+1n367224 0.1 1041764
22:00−5nne25915 0.0 104473
23 april, fri
fri2301:00−6nne26925 0.0 104585
04:00−8ne24955 0.0 104666
07:00−6nne24895 0.0 104782
10:000ne35715 0.0 1047798
13:00+3ne35615 0.0 10461194
16:00+4ne455914 0.0 10441269
19:00+3ne37735 0.0 1043413
22:00−2ne28924 0.0 1043133